Time,TemperatureF,DewpointF,PressureIn,WindDirection,WindDirectionDegrees,WindSpeedMPH,WindSpeedGustMPH,Humidity,HourlyPrecipIn,Conditions,Clouds,dailyrainin,SoftwareType,DateUTC
2013-09-30 00:12:00,48.0,16.0,-100.00,WNW,294,3.0,23.0,27,0.00,,,0.00,,2013-09-30 06:12:00,
2013-09-30 00:22:00,48.0,16.0,-100.00,WNW,294,3.0,23.0,27,0.00,,,0.00,,2013-09-30 06:22:00,
2013-09-30 00:32:00,48.0,16.0,-100.00,WNW,294,3.0,23.0,27,0.00,,,0.00,,2013-09-30 06:32:00,
2013-09-30 00:40:00,49.0,16.0,-100.00,WNW,287,8.0,17.0,26,0.00,,,0.00,,2013-09-30 06:40:00,
2013-09-30 01:12:00,49.0,16.0,-100.00,WNW,287,8.0,17.0,26,0.00,,,0.00,,2013-09-30 07:12:00,
2013-09-30 01:22:00,49.0,16.0,-100.00,WNW,287,8.0,17.0,26,0.00,,,0.00,,2013-09-30 07:22:00,
2013-09-30 01:32:00,49.0,16.0,-100.00,WNW,287,8.0,17.0,26,0.00,,,0.00,,2013-09-30 07:32:00,
2013-09-30 01:40:00,45.0,15.0,-100.00,NE,34,2.0,19.0,30,0.00,,,0.00,,2013-09-30 07:40:00,
2013-09-30 02:12:00,45.0,15.0,-100.00,NE,34,2.0,19.0,30,0.00,,,0.00,,2013-09-30 08:12:00,
2013-09-30 02:22:00,45.0,15.0,-100.00,NE,34,2.0,19.0,30,0.00,,,0.00,,2013-09-30 08:22:00,
2013-09-30 02:32:00,45.0,15.0,-100.00,NE,34,2.0,19.0,30,0.00,,,0.00,,2013-09-30 08:32:00,
2013-09-30 02:40:00,48.0,13.0,-100.00,WNW,283,5.0,11.0,24,0.00,,,0.00,,2013-09-30 08:40:00,
2013-09-30 03:11:00,48.0,13.0,-100.00,WNW,283,5.0,11.0,24,0.00,,,0.00,,2013-09-30 09:11:00,
2013-09-30 03:22:00,48.0,13.0,-100.00,WNW,283,5.0,11.0,24,0.00,,,0.00,,2013-09-30 09:22:00,
2013-09-30 03:33:00,48.0,13.0,-100.00,WNW,283,5.0,11.0,24,0.00,,,0.00,,2013-09-30 09:33:00,
2013-09-30 03:40:00,47.0,13.0,-100.00,WNW,290,5.0,12.0,25,0.00,,,0.00,,2013-09-30 09:40:00,
2013-09-30 04:13:00,47.0,13.0,-100.00,WNW,290,5.0,12.0,25,0.00,,,0.00,,2013-09-30 10:13:00,
2013-09-30 04:23:00,47.0,13.0,-100.00,WNW,290,5.0,12.0,25,0.00,,,0.00,,2013-09-30 10:23:00,
2013-09-30 04:32:00,47.0,13.0,-100.00,WNW,290,5.0,12.0,25,0.00,,,0.00,,2013-09-30 10:32:00,
2013-09-30 04:40:00,49.0,13.0,-100.00,WNW,294,3.0,11.0,23,0.00,,,0.00,,2013-09-30 10:40:00,
2013-09-30 05:12:00,49.0,13.0,-100.00,WNW,294,3.0,11.0,23,0.00,,,0.00,,2013-09-30 11:12:00,
2013-09-30 05:22:00,49.0,13.0,-100.00,WNW,294,3.0,11.0,23,0.00,,,0.00,,2013-09-30 11:22:00,
2013-09-30 05:33:00,49.0,13.0,-100.00,WNW,294,3.0,11.0,23,0.00,,,0.00,,2013-09-30 11:33:00,
2013-09-30 05:40:00,45.0,15.0,-100.00,NE,44,2.0,5.0,30,0.00,,,0.00,,2013-09-30 11:40:00,
2013-09-30 06:12:00,45.0,15.0,-100.00,NE,44,2.0,5.0,30,0.00,,,0.00,,2013-09-30 12:12:00,
2013-09-30 06:22:00,45.0,15.0,-100.00,NE,44,2.0,5.0,30,0.00,,,0.00,,2013-09-30 12:22:00,
2013-09-30 06:32:00,45.0,15.0,-100.00,NE,44,2.0,5.0,30,0.00,,,0.00,,2013-09-30 12:32:00,
2013-09-30 06:40:00,45.0,15.0,-100.00,NNE,29,2.0,6.0,30,0.00,,,0.00,,2013-09-30 12:40:00,
2013-09-30 07:11:00,45.0,15.0,-100.00,NNE,29,2.0,6.0,30,0.00,,,0.00,,2013-09-30 13:11:00,
2013-09-30 07:22:00,45.0,15.0,-100.00,NNE,29,2.0,6.0,30,0.00,,,0.00,,2013-09-30 13:22:00,
2013-09-30 07:32:00,45.0,15.0,-100.00,NNE,29,2.0,6.0,30,0.00,,,0.00,,2013-09-30 13:32:00,
2013-09-30 07:40:00,47.0,16.0,-100.00,ENE,59,2.0,11.0,28,0.00,,,0.00,,2013-09-30 13:40:00,
2013-09-30 08:11:00,47.0,16.0,-100.00,ENE,59,2.0,11.0,28,0.00,,,0.00,,2013-09-30 14:11:00,
2013-09-30 08:22:00,47.0,16.0,-100.00,ENE,59,2.0,11.0,28,0.00,,,0.00,,2013-09-30 14:22:00,
2013-09-30 08:32:00,47.0,16.0,-100.00,ENE,59,2.0,11.0,28,0.00,,,0.00,,2013-09-30 14:32:00,
2013-09-30 08:40:00,48.0,19.0,-100.00,East,80,1.0,9.0,31,0.00,,,0.00,,2013-09-30 14:40:00,
2013-09-30 09:11:00,48.0,19.0,-100.00,East,80,1.0,9.0,31,0.00,,,0.00,,2013-09-30 15:11:00,
2013-09-30 09:23:00,48.0,19.0,-100.00,East,80,1.0,9.0,31,0.00,,,0.00,,2013-09-30 15:23:00,
2013-09-30 09:34:00,48.0,19.0,-100.00,East,80,1.0,9.0,31,0.00,,,0.00,,2013-09-30 15:34:00,
2013-09-30 09:40:00,57.0,20.0,-100.00,NNW,329,3.0,10.0,23,0.00,,,0.00,,2013-09-30 15:40:00,
2013-09-30 10:14:00,57.0,20.0,-100.00,NNW,329,3.0,10.0,23,0.00,,,0.00,,2013-09-30 16:14:00,
2013-09-30 10:24:00,57.0,20.0,-100.00,NNW,329,3.0,10.0,23,0.00,,,0.00,,2013-09-30 16:24:00,
2013-09-30 10:34:00,57.0,20.0,-100.00,NNW,329,3.0,10.0,23,0.00,,,0.00,,2013-09-30 16:34:00,
2013-09-30 10:40:00,63.0,22.0,-100.00,WNW,299,4.0,10.0,21,0.00,,,0.00,,2013-09-30 16:40:00,
2013-09-30 11:13:00,63.0,22.0,-100.00,WNW,299,4.0,10.0,21,0.00,,,0.00,,2013-09-30 17:13:00,
2013-09-30 11:23:00,63.0,22.0,-100.00,WNW,299,4.0,10.0,21,0.00,,,0.00,,2013-09-30 17:23:00,
2013-09-30 11:34:00,63.0,22.0,-100.00,WNW,299,4.0,10.0,21,0.00,,,0.00,,2013-09-30 17:34:00,
2013-09-30 11:40:00,66.0,24.0,-100.00,NW,304,4.0,12.0,20,0.00,,,0.00,,2013-09-30 17:40:00,
2013-09-30 12:12:00,66.0,24.0,-100.00,NW,304,4.0,12.0,20,0.00,,,0.00,,2013-09-30 18:12:00,
2013-09-30 12:22:00,66.0,24.0,-100.00,NW,304,4.0,12.0,20,0.00,,,0.00,,2013-09-30 18:22:00,
2013-09-30 12:32:00,66.0,24.0,-100.00,NW,304,4.0,12.0,20,0.00,,,0.00,,2013-09-30 18:32:00,
2013-09-30 12:40:00,68.0,25.0,-100.00,West,278,5.0,12.0,20,0.00,,,0.00,,2013-09-30 18:40:00,
2013-09-30 13:12:00,68.0,25.0,-100.00,West,278,5.0,12.0,20,0.00,,,0.00,,2013-09-30 19:12:00,
2013-09-30 13:22:00,68.0,25.0,-100.00,West,278,5.0,12.0,20,0.00,,,0.00,,2013-09-30 19:22:00,
2013-09-30 13:32:00,68.0,25.0,-100.00,West,278,5.0,12.0,20,0.00,,,0.00,,2013-09-30 19:32:00,
2013-09-30 13:40:00,67.0,26.0,-100.00,West,272,5.0,12.0,21,0.00,,,0.00,,2013-09-30 19:40:00,
2013-09-30 14:13:00,67.0,26.0,-100.00,West,272,5.0,12.0,21,0.00,,,0.00,,2013-09-30 20:13:00,
2013-09-30 14:23:00,67.0,26.0,-100.00,West,272,5.0,12.0,21,0.00,,,0.00,,2013-09-30 20:23:00,
2013-09-30 14:33:00,67.0,26.0,-100.00,West,272,5.0,12.0,21,0.00,,,0.00,,2013-09-30 20:33:00,
2013-09-30 14:40:00,67.0,26.0,-100.00,WSW,250,4.0,14.0,21,0.00,,,0.00,,2013-09-30 20:40:00,
2013-09-30 15:11:00,67.0,26.0,-100.00,WSW,250,4.0,14.0,21,0.00,,,0.00,,2013-09-30 21:11:00,
2013-09-30 15:22:00,67.0,26.0,-100.00,WSW,250,4.0,14.0,21,0.00,,,0.00,,2013-09-30 21:22:00,
2013-09-30 15:34:00,67.0,26.0,-100.00,WSW,250,4.0,14.0,21,0.00,,,0.00,,2013-09-30 21:34:00,
2013-09-30 15:40:00,68.0,28.0,-100.00,WNW,288,5.0,12.0,22,0.00,,,0.00,,2013-09-30 21:40:00,
2013-09-30 16:13:00,68.0,28.0,-100.00,WNW,288,5.0,12.0,22,0.00,,,0.00,,2013-09-30 22:13:00,
2013-09-30 16:24:00,68.0,28.0,-100.00,WNW,288,5.0,12.0,22,0.00,,,0.00,,2013-09-30 22:24:00,
2013-09-30 16:34:00,68.0,28.0,-100.00,WNW,288,5.0,12.0,22,0.00,,,0.00,,2013-09-30 22:34:00,
2013-09-30 16:40:00,67.0,28.0,-100.00,WNW,295,4.0,12.0,23,0.00,,,0.00,,2013-09-30 22:40:00,
2013-09-30 17:12:00,67.0,28.0,-100.00,WNW,295,4.0,12.0,23,0.00,,,0.00,,2013-09-30 23:12:00,
2013-09-30 17:23:00,67.0,28.0,-100.00,WNW,295,4.0,12.0,23,0.00,,,0.00,,2013-09-30 23:23:00,
2013-09-30 17:34:00,67.0,28.0,-100.00,WNW,295,4.0,12.0,23,0.00,,,0.00,,2013-09-30 23:34:00,
2013-09-30 17:40:00,66.0,27.0,-100.00,WNW,291,3.0,10.0,23,0.00,,,0.00,,2013-09-30 23:40:00,
2013-09-30 18:12:00,66.0,27.0,-100.00,WNW,291,3.0,10.0,23,0.00,,,0.00,,2013-10-01 00:12:00,
2013-09-30 18:23:00,66.0,27.0,-100.00,WNW,291,3.0,10.0,23,0.00,,,0.00,,2013-10-01 00:23:00,
2013-09-30 18:32:00,66.0,27.0,-100.00,WNW,291,3.0,10.0,23,0.00,,,0.00,,2013-10-01 00:32:00,
2013-09-30 18:40:00,60.0,28.0,-100.00,NNE,27,2.0,9.0,30,0.00,,,0.00,,2013-10-01 00:40:00,
2013-09-30 19:12:00,60.0,28.0,-100.00,NNE,27,2.0,9.0,30,0.00,,,0.00,,2013-10-01 01:12:00,
2013-09-30 19:21:00,60.0,28.0,-100.00,NNE,27,2.0,9.0,30,0.00,,,0.00,,2013-10-01 01:21:00,
2013-09-30 19:33:00,60.0,28.0,-100.00,NNE,27,2.0,9.0,30,0.00,,,0.00,,2013-10-01 01:33:00,
2013-09-30 19:40:00,58.0,25.0,-100.00,North,360,4.0,10.0,28,0.00,,,0.00,,2013-10-01 01:40:00,
2013-09-30 20:12:00,58.0,25.0,-100.00,North,360,4.0,10.0,28,0.00,,,0.00,,2013-10-01 02:12:00,
2013-09-30 20:22:00,58.0,25.0,-100.00,North,360,4.0,10.0,28,0.00,,,0.00,,2013-10-01 02:22:00,
2013-09-30 20:33:00,58.0,25.0,-100.00,North,360,4.0,10.0,28,0.00,,,0.00,,2013-10-01 02:33:00,
2013-09-30 20:40:00,58.0,22.0,-100.00,NW,318,4.0,11.0,25,0.00,,,0.00,,2013-10-01 02:40:00,
2013-09-30 21:12:00,58.0,22.0,-100.00,NW,318,4.0,11.0,25,0.00,,,0.00,,2013-10-01 03:12:00,
2013-09-30 21:22:00,58.0,22.0,-100.00,NW,318,4.0,11.0,25,0.00,,,0.00,,2013-10-01 03:22:00,
2013-09-30 21:34:00,58.0,22.0,-100.00,NW,318,4.0,11.0,25,0.00,,,0.00,,2013-10-01 03:34:00,
2013-09-30 22:14:00,54.0,22.0,-100.00,NNE,29,2.0,9.0,29,0.00,,,0.00,,2013-10-01 04:14:00,
2013-09-30 22:24:00,54.0,22.0,-100.00,NNE,29,2.0,9.0,29,0.00,,,0.00,,2013-10-01 04:24:00,